2021-06-22 00:05:14 r, 19.53m,0000000001Hz,0000355000c,0000000.770s, 022.8C,00002191
2021-06-22 00:15:15 r, 19.37m,0000000002Hz,0000306941c,0000000.666s, 022.5C,00002191
2021-06-22 00:25:13 r, 19.45m,0000000001Hz,0000328142c,0000000.712s, 022.2C,00002191
2021-06-22 00:35:14 r, 19.51m,0000000001Hz,0000349357c,0000000.758s, 022.2C,00002191
2021-06-22 00:45:14 r, 18.72m,0000000003Hz,0000168533c,0000000.366s, 021.9C,00002191
2021-06-22 00:55:13 r, 19.71m,0000000001Hz,0000416700c,0000000.904s, 021.9C,00002191
2021-06-22 01:05:14 r, 19.64m,0000000001Hz,0000392810c,0000000.852s, 021.5C,00002191
2021-06-22 01:15:15 r, 18.78m,0000000003Hz,0000177567c,0000000.385s, 021.2C,00002191
2021-06-22 01:25:13 r, 19.03m,0000000003Hz,0000222817c,0000000.484s, 021.5C,00002191
2021-06-22 01:35:16 r, 19.60m,0000000001Hz,0000375142c,0000000.814s, 021.5C,00002191
2021-06-22 01:45:14 r, 19.57m,0000000001Hz,0000367526c,0000000.798s, 021.2C,00002191
2021-06-22 01:55:13 r, 19.71m,0000000001Hz,0000415780c,0000000.902s, 021.2C,00002191
2021-06-22 02:05:15 r, 19.76m,0000000001Hz,0000438640c,0000000.952s, 020.9C,00002191
2021-06-22 02:15:14 r, 19.80m,0000000001Hz,0000457819c,0000000.994s, 020.6C,00002191
2021-06-22 02:25:13 r, 19.95m,0000000001Hz,0000521940c,0000001.133s, 020.3C,00002191
2021-06-22 02:35:14 r, 19.91m,0000000001Hz,0000501729c,0000001.089s, 020.3C,00002191
2021-06-22 02:45:14 r, 20.05m,0000000001Hz,0000571348c,0000001.240s, 020.6C,00002191
2021-06-22 02:55:13 r, 19.71m,0000000001Hz,0000420426c,0000000.912s, 020.6C,00002191
2021-06-22 03:05:14 r, 19.71m,0000000001Hz,0000420482c,0000000.913s, 020.6C,00002191
2021-06-22 03:15:14 r, 19.57m,0000000001Hz,0000369428c,0000000.802s, 020.9C,00002191
2021-06-22 03:25:13 r, 19.48m,0000000002Hz,0000336018c,0000000.729s, 021.2C,00002191
2021-06-22 03:35:14 r, 19.31m,0000000002Hz,0000289977c,0000000.629s, 021.5C,00002191
2021-06-22 03:45:15 r, 18.60m,0000000004Hz,0000149521c,0000000.324s, 021.5C,00002191
2021-06-22 03:55:13 r, 18.22m,0000000004Hz,0000106094c,0000000.230s, 021.5C,00002191
2021-06-22 04:05:15 r, 17.37m,0000000010Hz,0000048536c,0000000.105s, 021.5C,00002191
2021-06-22 04:15:14 r, 16.65m,0000000018Hz,0000025114c,0000000.055s, 021.5C,00002191
2021-06-22 04:25:13 r, 15.73m,0000000042Hz,0000010789c,0000000.023s, 021.5C,00002191
2021-06-22 04:35:16 r, 13.93m,0000000225Hz,0000000000c,0000000.000s, 021.5C,00002191
2021-06-22 04:45:14 r, 12.27m,0000001044Hz,0000000000c,0000000.000s, 021.5C,00002191
2021-06-22 04:55:13 r, 11.09m,0000003115Hz,0000000000c,0000000.000s, 021.2C,00002191
2021-06-22 05:05:14 r, 09.54m,0000012955Hz,0000000000c,0000000.000s, 021.2C,00002191
2021-06-22 05:15:14 r, 08.47m,0000034775Hz,0000000000c,0000000.000s, 020.9C,00002191
2021-06-22 05:25:13 r, 07.77m,0000065671Hz,0000000000c,0000000.000s, 020.6C,00002191
2021-06-22 05:35:15 r, 07.01m,0000132493Hz,0000000000c,0000000.000s, 020.3C,00002191
2021-06-22 05:45:14 r, 06.62m,0000190404Hz,0000000000c,0000000.000s, 020.3C,00002191
2021-06-22 05:55:13 r, 06.29m,0000258403Hz,0000000000c,0000000.000s, 020.3C,00002191
2021-06-22 06:05:14 r, 06.12m,0000302795Hz,0000000000c,0000000.000s, 020.6C,00002191
2021-06-22 06:15:15 r, 00.00m,0000429475Hz,0000000000c,0000000.000s, 021.2C,00002191
2021-06-22 06:25:13 r, 00.00m,0000597093Hz,0000000000c,0000000.000s, 021.5C,00002191
2021-06-22 06:35:16 r, 00.00m,0000597029Hz,0000000000c,0000000.000s, 022.2C,00002191
2021-06-22 06:45:14 r, 00.00m,0000596914Hz,0000000000c,0000000.000s, 022.5C,00002191
2021-06-22 06:55:13 r, 00.00m,0000596767Hz,0000000000c,0000000.000s, 024.4C,00002191
2021-06-22 07:05:14 r, 00.00m,0000596626Hz,0000000000c,0000000.000s, 025.7C,00002191
2021-06-22 07:15:15 r, 00.00m,0000596414Hz,0000000000c,0000000.000s, 027.0C,00002191
2021-06-22 07:25:13 r, 00.00m,0000596421Hz,0000000000c,0000000.000s, 028.0C,00002191
2021-06-22 07:35:15 r, 00.00m,0000596182Hz,0000000000c,0000000.000s, 028.6C,00002191
2021-06-22 07:45:14 r, 00.00m,0000596152Hz,0000000000c,0000000.000s, 029.0C,00002191
2021-06-22 07:55:13 r, 00.00m,0000596259Hz,0000000000c,0000000.000s, 028.6C,00002191
2021-06-22 08:05:14 r, 00.00m,0000596154Hz,0000000000c,0000000.000s, 029.3C,00002191
2021-06-22 08:15:15 r, 00.00m,0000596181Hz,0000000000c,0000000.000s, 029.9C,00002191
2021-06-22 08:25:13 r, 00.00m,0000595855Hz,0000000000c,0000000.000s, 031.5C,00002191
2021-06-22 08:35:15 r, 00.00m,0000595802Hz,0000000000c,0000000.000s, 032.5C,00002191
2021-06-22 08:45:14 r, 00.00m,0000595816Hz,0000000000c,0000000.000s, 032.5C,00002191
2021-06-22 08:55:13 r, 00.00m,0000595462Hz,0000000000c,0000000.000s, 034.1C,00002191
2021-06-22 09:05:16 r, 00.00m,0000595613Hz,0000000000c,0000000.000s, 034.1C,00002191
2021-06-22 09:15:14 r, 00.00m,0000595688Hz,0000000000c,0000000.000s, 033.5C,00002191
2021-06-22 09:25:13 r, 00.00m,0000595514Hz,0000000000c,0000000.000s, 034.4C,00002191
2021-06-22 09:35:14 r, 00.00m,0000595585Hz,0000000000c,0000000.000s, 034.1C,00002191
2021-06-22 09:45:15 r, 00.00m,0000595317Hz,0000000000c,0000000.000s, 035.1C,00002191
2021-06-22 09:55:13 r, 00.00m,0000594964Hz,0000000000c,0000000.000s, 038.0C,00002191
2021-06-22 10:05:15 r, 00.00m,0000594501Hz,0000000000c,0000000.000s, 040.6C,00002191
2021-06-22 10:15:14 r, 00.00m,0000594433Hz,0000000000c,0000000.000s, 041.9C,00002191
2021-06-22 10:25:13 r, 00.00m,0000594567Hz,0000000000c,0000000.000s, 041.5C,00002191
2021-06-22 10:35:16 r, 00.00m,0000594477Hz,0000000000c,0000000.000s, 042.2C,00002191
2021-06-22 10:45:14 r, 00.00m,0000594426Hz,0000000000c,0000000.000s, 042.2C,00002191
2021-06-22 10:55:13 r, 00.00m,0000594183Hz,0000000000c,0000000.000s, 043.5C,00002191
2021-06-22 11:05:16 r, 00.00m,0000594214Hz,0000000000c,0000000.000s, 043.5C,00002191
2021-06-22 11:15:14 r, 00.00m,0000594032Hz,0000000000c,0000000.000s, 044.1C,00002191
2021-06-22 11:25:13 r, 00.00m,0000593814Hz,0000000000c,0000000.000s, 045.4C,00002191
2021-06-22 11:35:14 r, 00.00m,0000594038Hz,0000000000c,0000000.000s, 044.8C,00002191
2021-06-22 11:45:15 r, 00.00m,0000594217Hz,0000000000c,0000000.000s, 043.1C,00002191
2021-06-22 11:55:13 r, 00.00m,0000594007Hz,0000000000c,0000000.000s, 043.5C,00002191
2021-06-22 12:05:15 r, 00.00m,0000593812Hz,0000000000c,0000000.000s, 045.4C,00002191
2021-06-22 12:15:14 r, 00.00m,0000593633Hz,0000000000c,0000000.000s, 045.4C,00002191
2021-06-22 12:25:13 r, 00.00m,0000593520Hz,0000000000c,0000000.000s, 046.7C,00002191
2021-06-22 12:35:14 r, 00.00m,0000593280Hz,0000000000c,0000000.000s, 048.0C,00002191
2021-06-22 12:45:16 r, 00.00m,0000593261Hz,0000000000c,0000000.000s, 048.6C,00002191
2021-06-22 12:55:14 r, 00.00m,0000593159Hz,0000000000c,0000000.000s, 048.9C,00002191
2021-06-22 13:05:13 r, 00.00m,0000593189Hz,0000000000c,0000000.000s, 050.2C,00002191
2021-06-22 13:15:14 r, 00.00m,0000593497Hz,0000000000c,0000000.000s, 048.3C,00002191
2021-06-22 13:25:16 r, 00.00m,0000593276Hz,0000000000c,0000000.000s, 048.3C,00002191
2021-06-22 13:35:13 r, 00.00m,0000592954Hz,0000000000c,0000000.000s, 049.9C,00002191
2021-06-22 13:45:15 r, 00.00m,0000592785Hz,0000000000c,0000000.000s, 051.2C,00002191
2021-06-22 13:55:14 r, 00.00m,0000592770Hz,0000000000c,0000000.000s, 051.5C,00002191
2021-06-22 14:05:13 r, 00.00m,0000592762Hz,0000000000c,0000000.000s, 051.5C,00002191
2021-06-22 14:15:16 r, 00.00m,0000592673Hz,0000000000c,0000000.000s, 051.8C,00002191
2021-06-22 14:25:14 r, 00.00m,0000592643Hz,0000000000c,0000000.000s, 051.8C,00002191
2021-06-22 14:35:13 r, 00.00m,0000592638Hz,0000000000c,0000000.000s, 051.8C,00002191
2021-06-22 14:45:16 r, 00.00m,0000592677Hz,0000000000c,0000000.000s, 052.2C,00002191
2021-06-22 14:55:14 r, 00.00m,0000592527Hz,0000000000c,0000000.000s, 052.8C,00002191
2021-06-22 15:05:13 r, 00.00m,0000592472Hz,0000000000c,0000000.000s, 053.5C,00002191
2021-06-22 15:15:14 r, 00.00m,0000592422Hz,0000000000c,0000000.000s, 053.8C,00002191
2021-06-22 15:25:15 r, 00.00m,0000592555Hz,0000000000c,0000000.000s, 052.8C,00002191
2021-06-22 15:35:13 r, 00.00m,0000592800Hz,0000000000c,0000000.000s, 052.2C,00002191
2021-06-22 15:45:15 r, 00.00m,0000593282Hz,0000000000c,0000000.000s, 048.9C,00002191
2021-06-22 15:55:14 r, 00.00m,0000593301Hz,0000000000c,0000000.000s, 048.3C,00002191
2021-06-22 16:05:13 r, 00.00m,0000593448Hz,0000000000c,0000000.000s, 047.3C,00002191
2021-06-22 16:15:16 r, 00.00m,0000593757Hz,0000000000c,0000000.000s, 045.7C,00002191
2021-06-22 16:25:14 r, 00.00m,0000593957Hz,0000000000c,0000000.000s, 044.1C,00002191
2021-06-22 16:35:13 r, 00.00m,0000594199Hz,0000000000c,0000000.000s, 042.8C,00002191
2021-06-22 16:45:16 r, 00.00m,0000594279Hz,0000000000c,0000000.000s, 041.5C,00002191
2021-06-22 16:55:14 r, 00.00m,0000594231Hz,0000000000c,0000000.000s, 041.5C,00002191
2021-06-22 17:05:13 r, 00.00m,0000594302Hz,0000000000c,0000000.000s, 041.9C,00002191
2021-06-22 17:15:14 r, 00.00m,0000594329Hz,0000000000c,0000000.000s, 041.5C,00002191
2021-06-22 17:25:15 r, 00.00m,0000594459Hz,0000000000c,0000000.000s, 040.9C,00002191
2021-06-22 17:35:13 r, 00.00m,0000594387Hz,0000000000c,0000000.000s, 040.6C,00002191
2021-06-22 17:45:15 r, 00.00m,0000594021Hz,0000000000c,0000000.000s, 043.8C,00002191
2021-06-22 17:55:14 r, 00.00m,0000594195Hz,0000000000c,0000000.000s, 042.5C,00002191
2021-06-22 18:05:13 r, 00.00m,0000594476Hz,0000000000c,0000000.000s, 040.9C,00002191
2021-06-22 18:15:14 r, 00.00m,0000594616Hz,0000000000c,0000000.000s, 039.6C,00002191
2021-06-22 18:25:16 r, 00.00m,0000594750Hz,0000000000c,0000000.000s, 038.6C,00002191
2021-06-22 18:35:13 r, 00.00m,0000594829Hz,0000000000c,0000000.000s, 038.0C,00002191
2021-06-22 18:45:16 r, 00.00m,0000594837Hz,0000000000c,0000000.000s, 038.3C,00002191
2021-06-22 18:55:14 r, 00.00m,0000594761Hz,0000000000c,0000000.000s, 038.6C,00002191
2021-06-22 19:05:13 r, 00.00m,0000594833Hz,0000000000c,0000000.000s, 038.3C,00002191
2021-06-22 19:15:14 r, 00.00m,0000594820Hz,0000000000c,0000000.000s, 038.3C,00002191
2021-06-22 19:25:15 r, 00.00m,0000594899Hz,0000000000c,0000000.000s, 038.0C,00002191
2021-06-22 19:35:13 r, 00.00m,0000594978Hz,0000000000c,0000000.000s, 038.0C,00002191
2021-06-22 19:45:15 r, 00.00m,0000594882Hz,0000000000c,0000000.000s, 038.0C,00002191
2021-06-22 19:55:14 r, 00.00m,0000594899Hz,0000000000c,0000000.000s, 038.0C,00002191
2021-06-22 20:05:13 r, 00.00m,0000594962Hz,0000000000c,0000000.000s, 037.7C,00002191
2021-06-22 20:15:14 r, 00.00m,0000595158Hz,0000000000c,0000000.000s, 037.0C,00002191
2021-06-22 20:25:16 r, 00.00m,0000595100Hz,0000000000c,0000000.000s, 037.0C,00002191
2021-06-22 20:35:13 r, 05.85m,0000386428Hz,0000000000c,0000000.000s, 036.4C,00002191
2021-06-22 20:45:16 r, 05.97m,0000346530Hz,0000000000c,0000000.000s, 035.7C,00002191
2021-06-22 20:55:14 r, 06.26m,0000265710Hz,0000000000c,0000000.000s, 034.8C,00002191
2021-06-22 21:05:14 r, 06.29m,0000257045Hz,0000000000c,0000000.000s, 034.1C,00002191
2021-06-22 21:15:14 r, 06.79m,0000162238Hz,0000000000c,0000000.000s, 033.1C,00002191
2021-06-22 21:25:15 r, 07.19m,0000113075Hz,0000000000c,0000000.000s, 032.5C,00002191
2021-06-22 21:35:13 r, 07.96m,0000055098Hz,0000000000c,0000000.000s, 032.2C,00002191
2021-06-22 21:45:15 r, 08.61m,0000030310Hz,0000000000c,0000000.000s, 031.5C,00002191
2021-06-22 21:55:14 r, 09.67m,0000011466Hz,0000000000c,0000000.000s, 031.2C,00002191
2021-06-22 22:05:13 r, 10.93m,0000003573Hz,0000000000c,0000000.000s, 031.2C,00002191
2021-06-22 22:15:14 r, 12.37m,0000000957Hz,0000000000c,0000000.000s, 030.9C,00002191
2021-06-22 22:25:16 r, 13.86m,0000000240Hz,0000000000c,0000000.000s, 030.9C,00002191
2021-06-22 22:35:14 r, 15.02m,0000000082Hz,0000005625c,0000000.012s, 030.9C,00002191
2021-06-22 22:45:16 r, 16.49m,0000000021Hz,0000021683c,0000000.047s, 030.9C,00002191
2021-06-22 22:55:14 r, 17.09m,0000000012Hz,0000037488c,0000000.081s, 030.6C,00002191
2021-06-22 23:05:14 r, 17.70m,0000000007Hz,0000066309c,0000000.144s, 030.6C,00002191
2021-06-22 23:15:16 r, 17.85m,0000000006Hz,0000075971c,0000000.165s, 030.2C,00002191
2021-06-22 23:25:15 r, 18.57m,0000000003Hz,0000147313c,0000000.320s, 030.2C,00002191
2021-06-22 23:35:14 r, 18.86m,0000000002Hz,0000191050c,0000000.415s, 029.9C,00002191
2021-06-22 23:45:14 r, 19.04m,0000000002Hz,0000226650c,0000000.492s, 029.6C,00002191
2021-06-22 23:55:15 r, 18.65m,0000000003Hz,0000158282c,0000000.343s, 029.3C,00002191
